To NAV CANADA Home Page Login to a new session Search on AWWS site Feedback and Comments Disclaimer Vers la page française équivalente Tips FAQ What's new on the site To the Forecasts and Observations / NOTAM section To "File a Flight Plan" website Publications and other links Update of the User's profile FIC Telephone Numbers My Weather Data Folder Route Weather Data Regional Weather Data Local Weather Data To the Forecasts and Observations / NOTAM section
Request Generated 10/01/2016 at 03:09:11 UTC . Weather information available at that time is displayed.

METAR/TAF

FARO/YT    

LWIS CZFA 010300Z AUTO 27006KT 01/M07 A3038=
LWIS CZFA 010200Z AUTO 28004KT 03/M07 A3038=
METAR CZFA 010100Z 32004KT 280V350 30SM FEW070 FEW130 05/M08 A3039
RMK AC1AC1 CLIMAT 5.9/-6.3/0.0 LAST STFD OBS/NXT 011300Z SLP336=

*** REMARK        : Forecast period has ended; this was the last TAF issued
*** REMARQUE : La période de prévision est échue; ceci était le dernier TAF qui a été émis
TAF CZFA 301738Z 3018/0101 VRB03KT P6SM FEW180
BECMG 3018/3020 27007KT
RMK NXT FCST WILL BE ISSUED AT 011445Z=
Your time UTC time
Weather data provided by Environment Canada and NAV CANADA